Wind_Speed
23 22 23 23 23 22 23 23 24 23 23 22 20 19 18 18 18 18 17 17 16 15 14 13 12 12 11 12 11 11 11 10 9 8 8 8 8 8 8 9 10 9 9 9
24 23 24 24 24 23 22 22 23 24 24 23 21 20 19 19 19 20 19 18 18 16 14 14 13 12 12 12 12 11 11 11 10 9 9 9 9 9 9 9 10 10 10 9
23 23 25 25 23 23 23 22 22 24 24 24 22 21 20 20 20 20 20 20 19 17 15 15 14 14 13 13 13 12 12 12 12 11 11 10 10 10 10 10 10 11 11 10
22 22 25 23 22 22 23 22 21 23 23 23 23 23 22 21 21 20 20 21 21 20 18 16 16 15 14 14 14 13 13 13 13 12 12 12 11 11 10 11 11 11 11 11
23 23 24 22 21 22 22 22 22 23 23 23 23 24 23 21 21 21 19 19 20 21 19 18 18 16 16 15 15 14 14 14 14 13 13 13 12 12 11 11 12 12 11 12
25 25 23 22 22 22 22 23 22 22 22 22 23 24 22 22 21 21 21 20 20 20 20 20 19 18 17 17 16 15 15 15 15 15 15 14 13 13 12 12 12 13 13 12
25 25 24 22 23 23 24 22 21 22 21 21 22 23 23 23 23 22 22 21 21 21 21 21 20 19 19 18 18 17 16 15 15 16 15 15 14 14 14 13 13 14 14 14
26 26 24 23 24 24 24 23 22 22 22 22 21 21 22 23 24 23 23 22 22 22 22 22 22 21 20 19 19 19 17 16 16 16 16 16 15 15 15 15 15 15 15 16
27 26 24 24 25 25 25 25 25 24 22 22 22 22 22 23 23 24 23 23 23 23 23 23 22 22 21 21 21 20 19 18 18 17 17 17 17 17 16 16 16 16 16 16
27 26 26 25 25 25 26 25 25 25 25 23 23 23 23 22 23 23 23 23 23 23 24 24 24 23 22 22 23 22 21 20 19 19 19 19 18 18 18 18 17 17 17 18
27 26 26 26 26 25 25 25 25 25 25 24 24 23 23 23 23 23 23 24 24 23 24 25 25 25 24 23 24 23 22 21 20 20 20 20 20 20 19 19 18 18 18 18
26 26 27 27 27 27 26 25 26 26 25 24 23 23 23 24 24 24 23 23 24 24 24 25 25 25 26 25 25 24 23 23 22 21 21 21 21 21 20 20 19 18 18 18
26 27 27 27 27 27 27 26 26 26 25 25 24 23 23 24 24 23 24 23 24 25 25 25 25 26 26 26 26 25 24 23 23 22 21 22 22 21 21 20 20 19 19 19
26 27 27 27 26 26 27 27 27 27 27 26 26 24 24 24 24 24 25 25 25 25 26 26 25 26 27 28 27 27 25 25 24 23 23 22 23 22 21 21 21 20 20 20
27 27 27 28 27 26 27 27 27 27 27 26 25 24 24 24 25 25 26 26 26 26 26 26 27 27 28 29 29 28 27 26 26 25 24 24 23 23 22 22 22 22 21 21
27 27 27 28 28 28 28 27 26 26 26 26 26 26 26 26 26 27 27 28 28 27 26 27 27 28 28 29 29 30 29 28 27 27 26 25 24 24 23 23 23 23 22 22
26 26 26 27 27 27 26 26 25 25 25 27 27 27 27 26 27 27 27 28 27 27 27 27 27 28 29 29 29 30 30 29 28 28 27 26 25 25 25 24 24 23 23 23
25 25 25 26 27 26 25 25 25 25 26 28 29 29 29 28 27 27 27 27 27 27 27 27 27 28 28 29 30 30 30 30 29 29 28 28 27 26 26 25 25 25 24 24
24 24 24 24 25 25 26 26 25 26 27 29 29 29 29 28 27 27 28 28 27 27 27 27 28 28 29 30 30 31 31 31 30 30 29 29 28 28 27 26 26 25 25 25
23 24 25 25 25 25 25 25 26 26 26 28 28 29 29 28 28 28 27 27 27 27 28 29 29 29 29 30 31 31 31 31 31 30 30 30 30 30 29 28 27 27 26 25
24 25 26 26 26 25 26 27 27 28 27 27 28 28 29 29 28 28 28 27 27 28 28 28 28 29 29 30 31 31 31 31 31 31 31 31 30 30 29 28 28 27 26 26
24 24 24 25 25 26 26 27 28 28 28 28 28 29 29 29 29 28 28 27 26 26 27 28 28 29 30 30 31 31 31 32 32 32 32 31 31 30 30 30 30 29 29 28
23 23 23 23 24 25 26 26 26 26 26 26 26 28 29 29 28 28 28 27 27 27 27 27 28 29 30 31 31 32 32 33 33 32 32 32 32 32 31 31 31 31 31 30
23 23 23 23 24 24 25 25 25 26 26 26 27 27 28 28 28 28 29 29 28 28 27 27 28 29 29 30 31 32 32 32 33 33 32 32 32 32 32 32 32 31 32 32
23 24 24 23 23 24 24 25 26 26 26 26 27 27 28 28 27 27 29 29 29 29 28 28 29 29 30 30 30 31 32 32 31 32 32 32 31 32 33 33 33 33 33 33
23 24 23 23 23 24 24 25 25 25 26 26 26 26 27 27 28 27 28 29 29 30 30 29 30 30 30 30 31 31 31 32 32 32 32 32 32 32 32 33 33 33 33 34
22 22 22 22 22 23 24 25 25 25 25 25 25 25 25 27 28 28 28 28 29 30 30 30 30 30 30 30 31 31 31 32 32 32 32 31 31 31 31 32 32 33 33 34
Wind_Direction
264 264 264 262 261 261 262 262 263 262 262 261 262 261 259 259 257 257 259 258 261 265 263 262 259 260 263 262 257 254 252 251 243 240 244 247 247 246 239 234 233 232 232 233
263 263 263 263 262 261 261 262 262 260 259 260 259 256 256 256 255 256 255 256 259 259 257 256 257 259 261 260 256 253 252 248 241 240 243 246 246 247 243 238 234 231 232 233
265 263 261 262 263 262 261 262 263 261 260 257 257 253 252 253 252 255 254 253 254 250 252 251 252 255 256 255 254 254 253 248 242 240 244 246 247 246 245 242 237 232 231 232
266 264 261 264 263 263 262 261 262 262 259 257 257 253 251 251 252 256 255 251 251 250 250 247 248 250 250 251 250 251 250 247 243 242 245 246 247 244 246 244 238 230 231 233
267 266 263 262 262 262 263 261 262 262 258 258 257 254 251 252 252 252 254 252 249 247 244 244 246 247 247 247 249 249 246 244 244 243 244 245 245 244 245 245 242 233 232 236
267 268 265 264 264 263 263 261 260 260 260 258 256 255 253 251 251 251 251 252 250 244 241 241 243 245 244 244 246 247 247 245 243 242 243 244 243 242 243 244 243 236 237 238
266 268 266 265 264 264 263 263 260 259 258 258 258 258 254 251 251 252 251 251 249 245 242 241 241 244 243 242 244 246 246 245 243 242 242 243 243 243 243 244 244 242 242 243
266 266 265 265 264 262 263 263 260 259 260 260 259 257 255 253 252 252 251 250 247 246 244 242 241 242 243 242 242 243 243 243 242 241 242 242 243 244 245 246 246 246 246 246
266 265 266 265 263 263 261 262 259 257 258 260 258 256 257 255 253 252 252 251 250 248 246 245 243 242 242 241 243 242 242 242 243 243 243 243 244 246 247 247 249 248 248 247
263 262 263 262 262 262 262 262 259 257 259 257 257 257 257 256 254 253 252 252 249 248 246 244 245 243 241 240 241 242 242 242 243 244 245 245 244 246 246 247 250 251 251 251
263 261 260 259 259 260 261 260 258 257 257 256 258 257 257 256 255 255 253 251 250 249 246 246 245 243 241 240 240 241 242 241 242 243 244 244 244 245 246 246 248 249 250 251
264 263 262 260 258 259 258 257 257 257 257 257 255 256 257 255 254 252 251 252 250 248 248 246 245 244 242 241 239 240 241 241 241 242 243 244 244 243 244 245 247 248 249 250
264 261 261 261 260 260 259 257 255 254 254 256 254 255 255 252 249 249 249 251 252 249 248 246 244 242 242 243 239 237 237 239 241 242 243 244 244 244 243 243 246 248 251 252
264 262 260 261 262 261 260 258 258 255 253 254 253 254 254 251 250 249 250 251 251 251 250 247 244 242 242 242 241 237 235 237 239 241 242 244 244 242 241 244 247 249 252 254
262 263 261 260 260 261 260 258 258 254 252 252 254 253 253 252 251 249 250 251 251 251 249 246 244 242 242 241 241 239 237 236 237 239 241 242 243 243 242 245 248 250 252 253
265 263 261 260 261 260 259 257 257 255 254 252 253 254 253 254 252 252 252 250 251 250 248 247 245 242 241 239 240 240 238 238 238 239 241 242 243 244 245 247 249 250 253 256
265 264 262 260 260 260 259 257 255 254 254 253 253 254 254 254 253 253 252 251 251 250 248 247 245 242 240 238 239 239 237 237 238 239 240 241 243 244 246 247 248 251 254 256
267 267 263 261 258 257 258 258 255 255 255 254 254 254 254 254 254 251 250 249 249 250 248 245 244 242 239 239 239 237 236 237 238 239 240 241 241 243 245 247 248 252 255 257
265 264 262 264 262 259 257 257 256 256 256 256 255 254 255 256 254 252 249 247 249 249 247 244 243 242 240 238 238 237 236 236 238 239 240 241 241 243 245 248 250 253 256 258
264 263 263 264 264 262 260 259 258 257 257 257 256 256 255 255 253 252 250 249 250 250 247 244 244 242 239 238 239 238 237 237 238 239 241 243 243 244 245 248 251 254 257 258
263 263 263 262 260 259 259 259 259 257 257 257 256 256 256 255 253 250 250 250 251 250 247 244 242 242 241 241 240 238 237 238 239 240 242 243 243 244 246 249 251 254 256 258
265 266 266 263 260 260 260 260 261 260 259 258 257 257 256 254 251 249 250 250 249 248 246 244 242 242 242 241 239 238 237 238 239 241 242 243 243 244 247 250 252 254 256 259
266 266 265 263 263 263 263 262 261 262 262 260 259 258 256 253 251 249 248 249 248 246 245 243 242 242 243 240 239 238 239 239 240 241 243 244 244 245 247 250 254 255 257 259
267 266 265 265 265 264 263 262 262 262 262 260 258 257 255 253 252 250 249 248 247 245 244 243 242 243 244 242 240 240 240 240 240 241 243 245 246 247 249 252 255 257 259 261
269 269 268 267 267 266 265 264 265 264 261 260 258 257 255 252 252 251 250 248 246 245 245 245 245 244 244 243 241 241 240 240 241 243 244 246 247 249 251 254 256 259 261 263
270 270 270 269 268 267 267 267 266 264 262 260 258 256 253 252 252 251 249 247 246 246 245 246 246 245 244 243 242 242 241 241 242 243 246 247 249 251 253 255 257 259 261 262
270 269 268 268 268 266 266 267 266 263 260 257 256 254 253 252 252 252 249 248 248 247 247 247 247 246 245 244 243 243 242 242 243 244 247 249 252 254 255 257 258 260 261 263
Height
5797 5797 5796 5796 5797 5797 5797 5798 5798 5799 5799 5801 5801 5803 5804 5804 5805 5806 5807 5808 5809 5810 5810 5811 5812 5812 5813 5813 5813 5814 5814 5814 5815 5815 5816 5816 5816 5817 5817 5818 5818 5819 5820 5821
5790 5790 5789 5789 5790 5791 5791 5791 5791 5792 5793 5794 5795 5796 5797 5798 5799 5800 5801 5802 5803 5804 5805 5806 5807 5808 5808 5809 5810 5810 5811 5811 5812 5813 5813 5814 5814 5814 5815 5815 5816 5817 5818 5819
5783 5783 5781 5782 5784 5784 5784 5784 5785 5784 5787 5787 5788 5789 5791 5792 5793 5794 5795 5797 5798 5799 5800 5801 5803 5804 5804 5805 5806 5806 5807 5808 5809 5809 5810 5811 5811 5811 5812 5812 5813 5814 5815 5816
5775 5776 5775 5779 5778 5777 5777 5777 5777 5777 5778 5779 5780 5782 5784 5785 5786 5788 5790 5790 5792 5793 5795 5796 5797 5799 5800 5801 5802 5803 5804 5804 5805 5806 5806 5807 5808 5808 5809 5809 5810 5811 5812 5813
5768 5767 5768 5771 5771 5770 5770 5771 5771 5770 5771 5772 5773 5774 5777 5778 5779 5781 5783 5784 5785 5787 5789 5791 5792 5794 5795 5796 5797 5798 5799 5800 5801 5802 5803 5804 5804 5805 5806 5806 5807 5808 5809 5810
5761 5760 5761 5764 5764 5763 5764 5764 5765 5764 5764 5765 5766 5768 5771 5772 5772 5774 5776 5778 5780 5781 5783 5785 5786 5788 5790 5791 5792 5794 5795 5796 5797 5798 5799 5800 5801 5802 5802 5803 5804 5805 5806 5807
5754 5753 5754 5757 5757 5756 5757 5759 5758 5758 5758 5759 5760 5761 5764 5764 5765 5767 5769 5772 5773 5775 5776 5778 5780 5782 5784 5786 5787 5788 5790 5791 5792 5793 5795 5796 5797 5798 5799 5800 5800 5801 5802 5803
5746 5746 5750 5750 5749 5749 5749 5750 5750 5750 5751 5752 5753 5754 5755 5757 5758 5760 5762 5764 5766 5768 5770 5771 5773 5776 5778 5780 5782 5783 5785 5786 5787 5789 5790 5791 5792 5793 5795 5796 5797 5798 5798 5799
5739 5741 5741 5740 5740 5740 5741 5741 5742 5742 5744 5745 5746 5747 5749 5750 5752 5753 5755 5757 5759 5761 5763 5764 5766 5769 5771 5773 5776 5778 5779 5781 5782 5784 5785 5786 5788 5789 5790 5791 5792 5793 5794 5795
5730 5731 5731 5732 5732 5732 5733 5733 5734 5735 5736 5737 5739 5740 5741 5742 5744 5745 5747 5749 5751 5753 5755 5757 5759 5761 5764 5766 5769 5771 5773 5775 5777 5778 5780 5781 5783 5784 5785 5786 5787 5788 5789 5790
5721 5722 5722 5723 5723 5724 5725 5725 5726 5727 5728 5730 5731 5732 5734 5735 5737 5738 5740 5742 5743 5745 5748 5750 5752 5754 5756 5759 5762 5764 5766 5768 5770 5772 5774 5776 5777 5778 5780 5781 5782 5783 5784 5784
5713 5714 5714 5715 5715 5715 5716 5717 5718 5719 5720 5721 5723 5725 5726 5727 5729 5731 5732 5734 5736 5738 5740 5743 5744 5746 5749 5751 5754 5757 5760 5762 5764 5766 5768 5770 5771 5772 5773 5775 5776 5777 5778 5779
5704 5704 5705 5706 5707 5707 5708 5709 5709 5710 5711 5713 5715 5717 5718 5720 5721 5723 5725 5727 5728 5731 5732 5734 5736 5739 5741 5744 5747 5750 5752 5755 5757 5759 5761 5763 5765 5766 5767 5769 5770 5771 5772 5773
5695 5695 5696 5697 5698 5698 5699 5700 5701 5702 5703 5704 5706 5708 5710 5711 5713 5715 5717 5719 5721 5722 5724 5726 5728 5731 5734 5736 5739 5742 5745 5748 5750 5752 5755 5756 5758 5759 5761 5762 5764 5765 5766 5767
5686 5686 5687 5688 5689 5689 5690 5690 5691 5693 5694 5696 5698 5700 5701 5703 5705 5707 5709 5710 5712 5714 5715 5718 5720 5723 5725 5728 5731 5734 5737 5740 5743 5745 5747 5749 5751 5753 5755 5756 5758 5759 5760 5761
5677 5677 5677 5678 5679 5680 5680 5681 5682 5684 5686 5687 5689 5691 5693 5694 5696 5698 5699 5701 5703 5705 5707 5709 5712 5714 5717 5720 5722 5726 5729 5732 5735 5738 5740 5742 5744 5746 5748 5749 5751 5752 5753 5754
5668 5668 5669 5669 5670 5670 5671 5672 5673 5675 5677 5679 5680 5682 5684 5685 5687 5688 5690 5692 5694 5696 5698 5700 5703 5705 5708 5711 5714 5717 5721 5724 5727 5729 5732 5735 5737 5739 5740 5742 5743 5745 5746 5747
5659 5659 5660 5660 5660 5661 5662 5663 5665 5666 5668 5670 5671 5673 5675 5676 5678 5679 5681 5683 5685 5687 5689 5691 5694 5696 5700 5703 5706 5709 5712 5716 5719 5721 5724 5727 5729 5731 5733 5734 5736 5737 5738 5739
5651 5651 5652 5652 5653 5654 5654 5655 5656 5658 5659 5661 5662 5664 5666 5667 5669 5671 5673 5674 5676 5678 5680 5682 5685 5688 5691 5694 5697 5700 5703 5707 5710 5713 5716 5718 5721 5723 5725 5726 5728 5729 5730 5731
5643 5643 5644 5644 5645 5646 5647 5648 5649 5650 5651 5652 5653 5655 5656 5658 5660 5662 5664 5665 5667 5670 5672 5674 5676 5679 5682 5685 5688 5691 5695 5698 5701 5704 5707 5710 5712 5714 5716 5718 5720 5721 5722 5723
5636 5636 5635 5636 5636 5638 5639 5640 5641 5642 5643 5643 5645 5646 5647 5649 5650 5653 5655 5657 5659 5660 5663 5665 5668 5671 5674 5676 5679 5683 5686 5689 5692 5695 5698 5701 5703 5705 5708 5710 5711 5712 5713 5714
5629 5628 5628 5628 5628 5630 5631 5632 5633 5634 5634 5635 5636 5637 5639 5640 5642 5644 5646 5648 5650 5651 5654 5656 5659 5662 5665 5668 5671 5674 5677 5680 5683 5686 5689 5691 5694 5696 5699 5700 5702 5703 5704 5705
5622 5621 5621 5621 5622 5622 5623 5624 5625 5625 5626 5627 5628 5629 5630 5632 5633 5636 5638 5640 5641 5643 5645 5648 5651 5653 5655 5658 5661 5665 5668 5671 5674 5677 5679 5682 5684 5687 5689 5691 5692 5693 5694 5695
5615 5614 5614 5614 5614 5615 5616 5616 5617 5617 5618 5618 5620 5621 5622 5623 5625 5627 5629 5631 5633 5635 5637 5639 5641 5644 5646 5649 5652 5655 5658 5661 5664 5667 5670 5672 5674 5677 5679 5680 5682 5683 5684 5684
5607 5607 5607 5607 5607 5607 5608 5608 5608 5609 5609 5610 5611 5612 5613 5614 5616 5618 5620 5622 5624 5626 5628 5630 5633 5635 5637 5640 5643 5646 5649 5652 5655 5657 5660 5662 5664 5666 5668 5670 5671 5672 5673 5673
5600 5600 5599 5599 5599 5599 5599 5600 5600 5601 5601 5602 5603 5603 5604 5605 5607 5609 5611 5613 5615 5617 5619 5621 5624 5626 5628 5631 5634 5636 5639 5642 5645 5647 5650 5652 5654 5656 5657 5659 5660 5661 5661 5662
5593 5592 5592 5592 5592 5592 5592 5592 5592 5592 5592 5593 5594 5595 5596 5597 5598 5600 5601 5603 5605 5607 5609 5612 5614 5617 5619 5621 5624 5627 5629 5632 5635 5637 5640 5642 5644 5645 5647 5648 5649 5649 5650 5650